Location: Bednik
(45.3500°N, 16.3833°E)
Time: 17:38:51
(UTC+00:00)

NOSS 3-2 (A) - Pass Details

Date: 08 August 2020
Orbit: 795 x 1413 km, 63.4° (Epoch: 19 September)

Event Time Altitude Azimuth Distance (km) Brightness Sun altitude
Rises 21:25:17 0° 234° (SW) 3,368 6.2 -25.2°
Reaches altitude 10° 21:27:41 10° 239° (WSW) 2,486 5.6 -25.4°
Maximum altitude 21:33:17 53° 316° (NW) 1,135 4.1 -25.8°
Drops below altitude 10° 21:39:45 10° 33° (NNE) 2,855 6.3 -26.2°
Sets 21:42:40 0° 38° (NE) 3,913 7.1 -26.4°
